C/2022 F1 ( ATLAS )

Japanese version
Home page
Updated on September 11, 2022

---------------------------------------------------------------------

* Profile

Discovery Date March 30, 2022
Magnitude 18.6 mag
Discoverer Asteroid Terrestrial-Impact Last Alert System (ATLAS) search program

* Orbital Elements

Epoch 2022 Aug. 9.0 TT = JDT 2459800.5
T 2022 Aug. 5.07094 TT                                  Rudenko
q   5.9745216            (2000.0)            P               Q
z  -0.0000132      Peri.  278.25849     +0.05654692     +0.98887171
 +/-0.0000073      Node   350.65892     -0.16280421     -0.12684813
e   1.0000791      Incl.   57.97158     -0.98503667     +0.07773219
From 96 observations 2022 Mar. 30-Sept. 3, mean residual 0".5.

* Magnitudes Graph

        m1 = 7.0 + 5 log d + 10.0 log r

---------------------------------------------------------------------

The orbital elements are published on M.P.E.C. 2022-R139.
The magnitudes graphs are made with Comet for Windows.

---------------------------------------------------------------------

Copyright(C) Seiichi Yoshida (comet@aerith.net). All rights reserved.